Regional Weather Roundup
Issued by NWS State College, PA

Home | Current Version | Previous Version | Graphics & Text | Print | Product List | Glossary On
Versions: 1 2 3 4 5 6 7 8 9 10 11 12 13 14 15 16 17 18 19 20 21 22 23 24 25 26 27 28 29 30 31 32 33 34 35 36 37 38 39 40 41 42 43 44 45 46 47 48 49 50
000
ASUS41 KCTP 011710
RWRCTP

REGIONAL WEATHER ROUNDUP
NATIONAL WEATHER SERVICE STATE COLLEGE PA
1200 PM EST SUN FEB 01 2015

Note: "fair" indicates few or no clouds below 12,000 feet with no
significant weather and/or obstructions to visibility.

* = STATION THAT DOES NOT REPORT PRECIPITATION /E.G. RAIN...SNOW...ETC/
    THUNDER OR FOG.

PAZ002>004-007>009-013>016-020>023-029>032-011800-
WESTERN PENNSYLVANIA

CITY           SKY/WX    TMP DP  RH WIND       PRES   REMARKS
ERIE           LGT SNOW  27  23  85 NE13      30.11F VSB 1
MEADVILLE      LGT SNOW  28  24  85 VRB5      30.05F FOG
FRANKLIN*      CLOUDY    27  21  80 SE6       30.07F
NEW CASTLE     LGT SNOW  29  27  92 CALM      30.08F VSB 1
BEAVER COUNTY  NOT AVBL
BUTLER*        CLOUDY    28  27  93 SE5       30.09F
PITTSBURGH INT LGT SNOW  30  28  92 SE7       30.07F VSB 1
PITTSBURGH     LGT SNOW  30  25  81 S8        30.07F VSB 1
INDIANA*       PTSUNNY   30  28  93 SW3       30.12F FOG
LATROBE        LGT SNOW  32  32 100 SW6       30.11F
WASHINGTON CO* CLOUDY    32  28  86 S6        30.09F
$$

PAZ004>006-010>012-017>019-024>028-033>037-041-042-045-046-049>053-011800-
CENTRAL PENNSYLVANIA

CITY           SKY/WX    TMP DP  RH WIND       PRES   REMARKS
BRADFORD       CLOUDY    25  19  78 S3        30.04F HAZE
DUBOIS         LGT SNOW  26  22  84 SE5       30.05F VSB 1
CLEARFIELD     LGT SNOW  27  23  85 CALM      30.09F FOG
JOHNSTOWN      CLOUDY    28  25  88 SW9       30.03F
ALTOONA        LGT SNOW  30  26  85 S6        30.09F FOG
STATE COLLEGE  LGT SNOW  28  25  86 CALM      30.11F
WILLIAMSPORT   CLOUDY    30  20  66 CALM      30.18F
SELINSGROVE    CLOUDY    31  20  63 CALM      30.19F
FT INDIANTOWN  PTSUNNY   32  19  58 CALM      30.18F
CAPITAL CITY   CLOUDY    34  16  47 CALM      30.19F
HARRISBURG     CLOUDY    35  17  47 CALM      30.19F
YORK           CLOUDY    36  22  56 SW6       30.18F
$$

PAZ038>040-043-044-047-048-054-055-060>062-067>071-011800-
EASTERN PENNSYLVANIA

CITY           SKY/WX    TMP DP  RH WIND       PRES   REMARKS
SCRANTON       CLOUDY    29  17  61 SW6       30.14F
MOUNT POCONO   CLOUDY    26  16  65 W10       30.07F
ALLENTOWN      PTSUNNY   33  19  56 SW9       30.19F
QUAKERTOWN*    PTSUNNY   34  19  55 SW6       30.19F
READING        CLOUDY    35  23  61 CALM      30.20F
LANCASTER      PTSUNNY   31  22  69 E3        30.20F
COATESVILLE    PTSUNNY   36  28  75 CALM      30.19F
POTTSTOWN      CLOUDY    33  24  69 SW6       30.21F
BLUE BELL      PTSUNNY   36  25  64 W8        30.21F
DOYLESTOWN     PTSUNNY   33  19  56 W6        30.19F
WILLOW GROVE   NOT AVBL
NORTH PHILA    CLOUDY    40  18  41 NW9       30.23F
PHILADELPHIA   CLOUDY    36  25  64 W9        30.24F
$$



USA.gov is the U.S. government's official web portal to all federal, state and local government web resources and services.